Powrót do katalogu

UTMN-2

AktywnyKrótkofalarstwoSSO
NORAD 57203·PAYLOAD·🇷🇺 Russia
Ta nazwa satelity nie została jeszcze potwierdzona przez oficjalne źródła.

Wystrzelony Jun 27, 2023 z Vostochny Cosmodrome

Loading…

Następne Przeloty (najbliższe 24 godziny)

TLE

ŚwieżeSource: Space-Track

Epoka: Sep 14, 2026, 14:43 UTC

1 57203U 23091AP  26257.61378649  .00011012  00000-0  33687-3 0  9993
2 57203  97.4999 326.1598 0008830 117.9838 242.2299 15.33986269178240

Śledź UTMN-2 w czasie rzeczywistym z AllMySat

Download on the App Store